Shawnee Mission, KS

11:01 AM CST on February 08, 2016 (GMT -0600)
Johnson County Executive

Weather History for KOJC - May, 2012

Change the Weather History Date:

Thursday, May 31, 2012

  Actual Average Record
Temperature  
Mean Temperature 60 °F 69 °F  
Max Temperature 67 °F 79 °F 90 °F (1951)
Min Temperature 53 °F 60 °F 44 °F (1983)
Degree Days  
Heating Degree Days 5 1  
Month to date heating degree days 18 93  
Since 1 July heating degree days 3807 4926  
Cooling Degree Days 0 5  
Month to date cooling degree days 178 86  
Year to date cooling degree days 260 104  
Growing Degree Days 10 (Base 50)    
Moisture  
Dew Point 51 °F    
Average Humidity 71    
Maximum Humidity 90    
Minimum Humidity 52    
Precipitation  
Precipitation 0.00 in 0.17 in 3.18 in (2013)
Month to date precipitation 5.07 5.43  
Year to date precipitation 11.39 14.74  
Sea Level Pressure  
Sea Level Pressure 29.89 in    
Wind  
Wind Speed 13 mph (NNW)    
Max Wind Speed 24 mph    
Max Gust Speed 31 mph    
Visibility 10 miles    
Events      
T = Trace of Precipitation, MM = Missing Value Source: NWS Daily Summary

Daily Weather History Graph

Daily Weather History Graph

Search for Another Location

Airport or City:

Trip Planner

Search our weather history database for the weather conditions in past years. The results will help you decide how hot, cold, wet, or windy it might be!

Date:

Astronomy

May. 31, 2012 Rise Set
Actual Time 5:55 AM CDT 8:38 PM CDT
Civil Twilight 5:24 AM CDT 9:09 PM CDT
Nautical Twilight 4:45 AM CDT 9:48 PM CDT
Astronomical Twilight 4:01 AM CDT 10:33 PM CDT
Moon 4:30 PM CDT (5/31) 2:52 AM CDT (5/31)
Length of Visible Light 15h 44m
Length of Day
14h 42m
Waxing Gibbous, 80% of the Moon is Illuminated
May 31
Waxing Gibbous
Jun 4
Full
Jun 11
Last Quarter
Jun 19
New
Jun 26
First Quarter

Hourly Weather History & Observations

Time (CDT) Temp. Dew Point Humidity Pressure Visibility Wind Dir Wind Speed Gust Speed Precip Events Conditions
12:53 AM 61.0 °F 57.0 °F 87% 29.79 in 10.0 mi SE 5.8 mph - 0.03 in   Clear
1:53 AM 61.0 °F 57.9 °F 90% 29.78 in 10.0 mi Calm Calm - N/A   Clear
2:53 AM 62.1 °F 57.9 °F 86% 29.77 in 10.0 mi NW 4.6 mph - N/A   Clear
3:53 AM 61.0 °F 57.0 °F 87% 29.77 in 10.0 mi North 10.4 mph - N/A   Clear
4:53 AM 61.0 °F 55.9 °F 83% 29.77 in 10.0 mi North 11.5 mph - N/A   Clear
5:53 AM 60.1 °F 55.9 °F 86% 29.78 in 10.0 mi North 9.2 mph - N/A   Clear
6:50 AM 60.8 °F 55.4 °F 82% 29.84 in 10.0 mi North 12.7 mph - N/A   Mostly Cloudy
6:53 AM 60.1 °F 55.9 °F 86% 29.82 in 10.0 mi North 10.4 mph - N/A   Mostly Cloudy
7:53 AM 61.0 °F 55.9 °F 83% 29.83 in 10.0 mi NNW 13.8 mph 19.6 mph N/A   Overcast
8:24 AM 59.0 °F 55.4 °F 88% 29.88 in 7.0 mi NNW 16.1 mph 25.3 mph N/A   Overcast
9:00 AM 57.2 °F 53.6 °F 88% 29.90 in 8.0 mi NW 13.8 mph 21.9 mph N/A   Overcast
9:53 AM 57.9 °F 52.0 °F 81% 29.89 in 10.0 mi NW 9.2 mph - N/A   Overcast
10:10 AM 57.2 °F 51.8 °F 82% 29.91 in 10.0 mi NNW 11.5 mph - N/A   Overcast
10:53 AM 59.0 °F 52.0 °F 78% 29.90 in 10.0 mi NNW 11.5 mph - N/A   Overcast
11:53 AM 60.1 °F 50.0 °F 69% 29.91 in 10.0 mi NNW 13.8 mph 23.0 mph N/A   Overcast
11:55 AM 60.8 °F 50.0 °F 68% 29.92 in 10.0 mi NNW 13.8 mph 23.0 mph N/A   Mostly Cloudy
12:53 PM 62.1 °F 48.9 °F 62% 29.91 in 10.0 mi NW 20.7 mph 25.3 mph N/A   Overcast
1:53 PM 66.0 °F 48.0 °F 52% 29.91 in 10.0 mi North 16.1 mph 27.6 mph N/A   Mostly Cloudy
2:53 PM 64.9 °F 48.0 °F 54% 29.91 in 10.0 mi NW 18.4 mph 28.8 mph N/A   Mostly Cloudy
3:53 PM 66.9 °F 48.0 °F 51% 29.90 in 10.0 mi North 19.6 mph 27.6 mph N/A   Overcast
4:53 PM 64.0 °F 48.9 °F 58% 29.91 in 10.0 mi North 18.4 mph 25.3 mph N/A   Mostly Cloudy
5:53 PM 61.0 °F 46.9 °F 60% 29.93 in 10.0 mi North 19.6 mph 28.8 mph N/A   Overcast
6:53 PM 61.0 °F 46.0 °F 58% 29.94 in 10.0 mi North 18.4 mph 25.3 mph N/A   Scattered Clouds
7:53 PM 59.0 °F 46.0 °F 62% 29.95 in 10.0 mi North 15.0 mph 20.7 mph N/A   Scattered Clouds
8:53 PM 57.0 °F 46.0 °F 67% 29.96 in 10.0 mi NNW 9.2 mph - N/A   Clear
10:53 PM 55.0 °F 46.0 °F 72% 30.01 in 10.0 mi North 9.2 mph - N/A   Mostly Cloudy
11:21 PM 55.4 °F 46.4 °F 72% 30.01 in 10.0 mi NNW 8.1 mph - N/A   Overcast
11:53 PM 55.0 °F 46.9 °F 74% 30.00 in 10.0 mi North 11.5 mph 19.6 mph N/A   Mostly Cloudy